FALCON 9 DEB (52709 NORAD) Tracking and Keplerian Element Data

This shows tracking and keplerian element data for the satellite.

Feedback or suggestion? Click here.




ElementValue
Catalog52709
NameFALCON 9 DEB
Epoch Orbit964
Epoch Day191.64939247
Epoch Year2022
RAAN24.1597
Inclination53.1983
Eccentricity0.0008633
Argument of Perigee279.5401
Mean Anonmoly80.4675
Mean Motion16.46511312
Decay Rate0.10257603
L11 52709U 22053BF 22191.64939247 .10257603 12553-4 20423-3 0 9992
L22 52709 53.1983 24.1597 0008633 279.5401 80.4675 16.46511312 9649

Live tracking and technical data element details for FALCON 9 DEB (NORAD 52709). FALCON 9 DEB can be tracked NOW for your location showing map with azimuth and elevation plus other details from your city location.

Track the satellite on the map from your city or location and see movement details for azimuth, elevation, latitude, longitude, range, height, and movement on the map or in text.







IsCatalogInMostPopularTable: catalog: 52709, numindb: 7
Update: records affected: 1



GetName: 52709 FALCON 9 DEB

Hit Count: updated at: Sun, 14 Aug 2022 01:39:53 GMT